Simultaneous Nadir Overpasses (SNOs) Predictions

Prediction of SNOs between AQUA and GOES-15 Satellite Orbit:

Table of predicted SNOs for the next 14.0 days since TLE Epoch: 10/12/2018
Index Date Time (AQUA) AQUA Lat,Lon GOES-15 Lat,Lon Distance(km) Time Diff (sec)
1 10/12/2018 20:09:59 -0.33,-135.62 -0.34,-135.62 0.43 80
2 10/13/2018 20:06:48 -0.33,-135.61 -0.33,-135.61 0.43 80
3 10/14/2018 20:03:23 -0.33,-135.60 -0.33,-135.59 0.43 80
4 10/16/2018 19:55:48 -0.32,-135.57 -0.32,-135.56 0.43 80
5 10/17/2018 19:51:39 -0.32,-135.55 -0.32,-135.55 0.43 80
6 10/18/2018 19:47:20 -0.32,-135.54 -0.32,-135.53 0.43 80
7 10/19/2018 19:42:58 -0.32,-135.52 -0.32,-135.51 0.43 80
8 10/20/2018 19:38:39 -0.32,-135.50 -0.32,-135.50 0.43 80
9 10/21/2018 19:34:29 -0.32,-135.48 -0.32,-135.48 0.43 80
10 10/23/2018 19:26:56 -0.32,-135.44 -0.32,-135.43 0.43 80
11 10/24/2018 19:23:36 -0.32,-135.41 -0.32,-135.41 0.43 80
12 10/25/2018 19:20:33 -0.31,-135.39 -0.31,-135.38 0.43 80




NCC Satellite Simultaneous Nadir Overpasses (SNOs) Prediction Service
